DW3142 Weather Reports


Display with metric or nautical units.
time (UTC)temp
F
wind
direction
speed
MPH
gust
MPH
rain 1hr
in
rain 24hr
in
rain mn
in
humidity
%
barometer
mb
20260504201539 71 146 6.0 16.0 0.00 0.00 0.00 33 1006.2
20260504200038 72 225 6.0 16.0 0.00 0.00 0.00 33 1006.2
20260504194542 71 127 7.0 16.0 0.00 0.00 0.00 35 1006.1
20260504193035 70 172 8.0 17.0 0.00 0.00 0.00 32 1006.3
20260504191536 70 180 7.0 25.0 0.00 0.00 0.00 34 1006.4
20260504190032 71 138 7.0 15.0 0.00 0.00 0.00 34 1006.4
20260504184543 70 163 9.0 18.0 0.00 0.00 0.00 33 1006.5
20260504183028 70 192 8.0 21.0 0.00 0.00 0.00 34 1006.5
20260504181531 68 140 7.0 18.0 0.00 0.00 0.00 35 1006.6
20260504180027 70 183 10.0 20.0 0.00 0.00 0.00 32 1006.7
20260504174524 70 172 8.0 15.0 0.00 0.00 0.00 35 1006.7
20260504173021 69 148 9.0 26.0 0.00 0.00 0.00 34 1006.6
20260504171523 69 134 11.0 22.0 0.00 0.00 0.00 33 1006.9
20260504081544 39 117 0.0 2.0 0.00 0.00 0.00 76 1010.0
20260504050021 34 229 0.0 0.0 0.00 0.00 0.00 82 1010.1
20260504044516 34 229 0.0 0.0 0.00 0.00 0.00 82 1010.1
20260504043015 34 229 0.0 0.0 0.00 0.00 0.00 80 1010.0
20260504041510 34 229 0.0 1.0 0.00 0.00 0.00 81 1010.1
20260504040007 34 229 0.0 0.0 0.00 0.00 0.00 81 1010.0
20260504034506 34 229 0.0 2.0 0.00 0.02 0.00 80 1009.8
20260504033004 35 229 0.0 0.0 0.00 0.02 0.00 78 1009.8
20260504031505 35 229 0.0 0.0 0.00 0.02 0.00 78 1009.7
20260504030002 36 229 0.0 0.0 0.00 0.02 0.00 76 1009.6
20260504024605 36 229 0.0 0.0 0.00 0.02 0.00 75 1009.7
20260504023058 37 229 0.0 0.0 0.00 0.02 0.00 75 1009.7
20260504021557 37 229 0.0 2.0 0.00 0.02 0.00 72 1009.8
20260504021527 37 229 0.0 2.0 0.00 0.02 0.00 72 1009.8
20260504020109 38 229 0.0 0.0 0.00 0.02 0.00 74 1009.6
20260504014553 40 229 0.0 0.0 0.00 0.02 0.00 64 1009.6
20260504013052 40 229 0.0 0.0 0.00 0.02 0.00 63 1009.5
20260504011553 41 229 0.0 1.0 0.00 0.02 0.00 61 1009.4
20260504010054 43 229 0.0 3.0 0.00 0.02 0.00 59 1009.2
20260504004552 44 229 0.0 2.0 0.00 0.02 0.00 55 1009.0
20260504003053 44 130 0.0 3.0 0.00 0.02 0.00 54 1008.8
20260504001554 45 196 1.0 7.0 0.00 0.02 0.00 52 1008.8
20260504000051 46 194 1.0 8.0 0.00 0.02 0.00 52 1008.6
20260503234612 47 212 0.0 10.0 0.00 0.06 0.00 49 1008.4
20260503233051 48 238 2.0 10.0 0.00 0.06 0.00 47 1008.4
20260503231549 48 248 5.0 12.0 0.00 0.06 0.00 47 1008.1
20260503230048 49 182 4.0 12.0 0.00 0.06 0.00 46 1008.1
20260503224548 49 194 2.0 11.0 0.00 0.10 0.00 46 1007.9
20260503223047 49 210 3.0 11.0 0.00 0.10 0.00 46 1007.7
20260503221556 49 190 4.0 15.0 0.00 0.10 0.00 43 1007.6
20260503220047 51 181 3.0 10.0 0.00 0.10 0.00 42 1007.4
20260503214545 50 188 3.0 10.0 0.00 0.14 0.00 46 1007.4
20260503213044 50 211 3.0 12.0 0.00 0.14 0.00 43 1007.3
20260503211542 51 159 2.0 11.0 0.00 0.14 0.00 42 1007.2
20260503210043 50 194 3.0 14.0 0.00 0.14 0.00 42 1007.1
20260503204545 51 253 3.0 16.0 0.00 0.14 0.00 42 1006.9
20260503203053 51 290 4.0 14.0 0.00 0.14 0.00 46 1006.9